Location: Mountain View
(37.3861°N, 122.0839°W)
Time: 03:55:20
(UTC-08:00)

N. Korean satellite - Visible Passes

Search period start: 15 December 2017 00:00
Search period end: 25 December 2017 00:00
Orbit: 461 x 513 km, 97.2° (Epoch: 14 December)

Date Brightness Start Highest point End Pass type
(mag) Time Alt. Az. Time Alt. Az. Time Alt. Az.
15 Dec 7.2 17:41:20 10° SE 17:44:45 36° ENE 17:48:12 10° N visible
15 Dec 10.0 19:16:44 10° WSW 19:18:23 12° W 19:20:02 10° WNW visible
16 Dec 7.2 06:43:44 10° NNE 06:47:24 64° E 06:50:59 10° S visible
16 Dec 8.1 17:18:41 10° ESE 17:21:20 19° ENE 17:24:01 10° NNE visible
16 Dec 9.0 18:51:35 10° SSW 18:54:39 24° W 18:57:46 10° NW visible
17 Dec 8.8 06:20:31 10° NE 06:23:46 30° E 06:26:58 10° SSE visible
17 Dec 7.6 18:27:24 10° S 18:31:01 50° W 18:34:41 10° NNW visible
18 Dec 9.8 05:57:55 10° ENE 06:00:04 15° E 06:02:12 10° SE visible
18 Dec 6.5 18:03:45 10° SSE 18:07:27 75° ENE 18:11:13 10° N visible
19 Dec 7.2 17:40:33 10° SE 17:43:58 35° ENE 17:47:25 10° N visible
19 Dec 10.0 19:15:52 10° WSW 19:17:35 13° W 19:19:19 10° WNW visible
20 Dec 7.2 06:42:58 10° NNE 06:46:36 63° E 06:50:08 10° S visible
20 Dec 8.1 17:17:54 10° ESE 17:20:33 19° ENE 17:23:13 10° NNE visible
20 Dec 9.0 18:50:45 10° SSW 18:53:51 25° W 18:57:00 10° NW visible
21 Dec 8.8 06:19:45 10° NE 06:22:57 29° E 06:26:06 10° SSE visible
21 Dec 7.5 18:26:35 10° S 18:30:13 51° W 18:33:54 10° NNW visible
22 Dec 9.9 05:57:10 10° ENE 05:59:14 15° E 06:01:16 10° SE visible
22 Dec 6.5 18:02:55 10° SSE 18:06:39 74° ENE 18:10:24 10° N visible
23 Dec 7.3 17:39:43 10° SE 17:43:09 35° ENE 17:46:36 10° N visible
23 Dec 10.0 19:14:58 10° WSW 19:16:45 13° W 19:18:33 10° WNW visible
24 Dec 7.2 06:42:10 10° NNE 06:45:44 61° E 06:49:14 10° S visible
24 Dec 9.0 18:49:53 10° SSW 18:53:02 25° W 18:56:11 10° NW visible
